Location: Berbisdorf
(50.7638°N, 12.9442°E)
Time: 22:31:39
(UTC+00:00)

Meteor 1-11 - Pass Details

Date: 07 June 2020
Orbit: 843 x 885 km, 81.2° (Epoch: 04 July)

Event Time Altitude Azimuth Distance (km) Brightness Sun altitude
Exits shadow 01:03:54 16° 210° (SSW) 2,041 5.5 -12.1°
Maximum altitude 01:08:15 59° 286° (WNW) 970 4.5 -11.8°
Drops below altitude 10° 01:13:48 10° 7° (N) 2,476 7.8 -11.3°
Sets 01:16:16 0° 11° (N) 3,417 8.9 -11.1°
